www.pogodaiklimat.ru

Погода и климат >> Архив погоды >> Россия >> Ханты-Мансийский АО >> Вонъеган


ПОГОДА в Вонъегане

  • Прогноз погоды в Вонъегане
  • Монитор погоды в Вонъегане

АРХИВ ПОГОДЫ в Вонъегане

Время (UTC), дата Ветер
(напр.,м/с)
 
Видим.   Явления Облачность Т
(С)
Тd
(С)
f
(%)
Тe
(С)
Тes
(С)
Комфортность P
(гПа)
Po
(гПа)
Тmin
(С)
Tmax
(С)
R
(мм)
R24
(мм)
S
(см)
09 11.06 СЗ 3 20 км 5/5 1000 м
[Cu hum]
+20.3 +8.0 45 +22 +27 комфорт 1005.5 992.7
12 11.06 З 2 н/о н/о +22.2 +6.7 37 +23 +23 комфорт 1004.6 991.8
15 11.06 ЮЗ 1 20 км 10/8 600 м
[Cb cap Ac und]
+17.6 +12.0 70 +19 +19 1004.0 991.1 +23.1
18 11.06 ЮЗ 1 20 км 10/6 600 м
[Cb cap Ac trans Ci sp]
+13.5 +11.2 86 +14 +14 1004.0 990.8
21 11.06 З 1 20 км 3/0
[Ci sp]
+10.2 +9.1 93 +10 +10 1002.9 989.6
00 12.06 З 1 20 км 6/0
[Ac trans Ci sp]
+10.2 +8.8 91 +10 +10 1001.7 988.4
03 12.06 З 1 20 км 10/5 600 м
[Cb cap Ac trans Ci sp]
+15.3 +9.4 68 +16 +18 999.8 986.8 +7.3
06 12.06 З 2 н/о н/о +16.5 +9.3 62 +17 +17 998.1 985.1
09 12.06 З 3
{10}
20 км в посл. час ливневой дождь 9/9 600 м
[Cb cap]
+14.3 +10.2 76 +13 +14 997.4 984.4
12 12.06 З 3 н/о н/о +13.7 +10.8 83 +13 +13 997.5 984.4
15 12.06 СЗ 2 10 км слаб. ливневой дождь 10/10 600 м
[Cb cap]
+9.4 +7.8 90 +8 +8 998.8 985.6 +16.5 4
18 12.06 С 3
{10}
20 км {ливн. осадки} 10/10 600 м
[Cb cap]
+7.3 +5.2 87 +4 +4 999.5 986.1
21 12.06 СЗ 3 20 км {ливн. осадки} 10/6 600 м
[Cb cap Ac trans Ci sp]
+5.1 +2.0 80 +2 +2 1000.8 987.3
00 13.06 СЗ 3 20 км {ливн. осадки} 8/0
[Ac trans]
+3.8 +0.5 79 0 0 1001.5 987.9
03 13.06 СЗ 4 20 км 9/4 600 м
[Cb cap Ac trans]
+6.4 -0.1 63 +3 +4 1001.8 988.4 +3.4 0.3
06 13.06 СЗ 3 н/о н/о +6.2 -0.9 60 +3 +3 1002.4 988.9
09 13.06 З 3
{11}
20 км {ливн. осадки} 10/8 300 м
[Cb cap Ac und]
+5.9 +0.5 68 +3 +4 1002.5 989.0
12 13.06 З 4
{12}
н/о н/о +7.3 +0.3 61 +4 +4 1003.3 989.9
15 13.06 З 3
{10}
20 км {ливн. осадки} 10/5 300 м
[Cb cap Ac trans Ci sp]
+5.2 +0.9 74 +2 +2 1003.7 990.2 +7.8 0.4
18 13.06 З 3 20 км {ливн. осадки} 9/8 600 м
[Sc Ac trans]
+3.9 +0.9 81 0 0 1003.8 990.2
21 13.06 З 2 20 км 10/10 600 м
[Sc]
+2.5 -1.8 73 -0 -0 1003.4 989.8
00 14.06 З 2 20 км 10/10 600 м
[Cb cap]
+2.2 -1.4 77 -1 -1 1003.0 989.3
03 14.06 З 3 10 км слаб. ливневой дождь 10/10 600 м
[Cb cap]
+2.8 +0.6 85 -1 -1 1003.1 989.5 +1.6 0.3
06 14.06 З 3
{11}
н/о н/о +4.2 0.0 74 +1 +1 1004.0 990.4 +1.4
09 14.06 СЗ 3
{11}
20 км 9/9 600 м
[Cb cap]
+8.0 -3.5 44 +6 +7 1004.6 991.2
12 14.06 З 3 н/о н/о +8.9 -2.9 43 +7 +7 1005.5 992.1
15 14.06 З 1 20 км 9/5 600 м
[Sc Ac trans]
+8.7 +0.7 57 +8 +9 1006.0 992.6 +9.4 1
18 14.06 З 1 20 км 9/9 1000 м
[Sc]
+6.3 +0.9 68 +6 +6 1006.1 992.6
21 14.06 З 1 20 км 8/8 1000 м
[Sc]
+4.6 -0.4 70 +4 +4 1006.6 993.0
00 15.06 штиль 0 20 км 4/0
[Ac trans Ci sp]
+2.3 -0.1 84 +1 +2 1006.6 992.9
03 15.06 ЮЗ 2 20 км 10/4 600 м
[Sc Ci sp]
+8.3 -0.1 55 +7 +9 1006.1 992.7 +1.3
06 15.06 З 3 н/о н/о +9.4 -1.6 46 +8 +8 1005.4 992.0
09 15.06 ЮЗ 4 20 км 10/5 600 м
[Cb cap Ci sp]
+12.0 -1.3 40 +10 +14 1004.0 990.7
12 15.06 ЮЗ 2 н/о н/о +11.9 -0.1 44 +11 +11 1003.2 990.0
15 15.06 ЮЗ 1 20 км в посл. час ливневой дождь 10/9 600 м
[Cb cap Ci sp]
+9.4 +4.1 69 +9 +9 1002.8 989.5 +12.7 0.0
18 15.06 ЮЗ 1 20 км в посл. час ливневой дождь 10/8 600 м
[Cb cap Ci sp]
+7.7 +6.0 89 +7 +7 1001.9 988.5
21 15.06 Ю 1 10 км слаб. ливневой дождь 10/10 600 м
[Cb cap]
+6.8 +6.1 95 +6 +6 1000.6 987.2
00 16.06 СЗ 1 10 км слаб. дождь 10/0 300 м
[As op]
+6.4 +5.9 97 +5 +5 999.7 986.3
03 16.06 СЗ 1 20 км {дождь} 9/8 600 м
[Cb cap Ac trans]
+7.9 +6.2 89 +7 +8 999.2 985.9 +6.3 5
06 16.06 С 3 н/о н/о +11.1 +4.1 62 +9 +9 999.1 985.9
09 16.06 СЗ 2
{10}
20 км 8/6 600 м
[Cb cap Ci sp]
+10.9 +2.9 58 +10 +15 999.5 986.3
12 16.06 СЗ 2 н/о н/о +11.2 +1.5 51 +10 +10 1000.5 987.2
15 16.06 СЗ 1 20 км 8/4 600 м
[Cb cap Ac trans]
+9.4 +1.6 58 +9 +10 1001.1 987.8 +12.3
18 16.06 ЮЗ 1 20 км 9/9 600 м
[Cb cap]
+7.3 +3.8 78 +7 +7 1001.8 988.4
21 16.06 штиль 0 20 км 5/5 600 м
[Sc]
+1.4 +0.9 96 0 0 1001.5 987.8
00 17.06 штиль 0 20 км 6/4 1000 м
[Sc Ci sp]
+3.6 +2.2 91 +2 +3 1001.1 987.5
03 17.06 ЮЗ 1 20 км 8/6 1000 м
[Sc Ci sp]
+10.4 +3.6 63 +10 +13 1000.4 987.1 +0.5
06 17.06 З 2 н/о н/о +13.9 +2.4 46 +14 +14 999.1 986.0
09 17.06 З 3 20 км 10/8 600 м
[Cb cap Ci sp]
+13.7 +3.7 51 +13 +15 999.2 986.1
12 17.06 ЮЗ 2 н/о н/о +13.2 +7.1 66 +13 +13 999.4 986.3
15 17.06 В 1 20 км в посл. час ливневой дождь 10/6 600 м
[Cb cap Ac trans Ci sp]
+10.4 +7.8 84 +10 +10 1000.5 987.3 +14.5 0.5
18 17.06 ЮВ 1 20 км в посл. час ливневой дождь 10/9 600 м
[Cb cap Ci sp]
+8.4 +7.8 96 +7 +7 1000.9 987.6
21 17.06 З 1 20 км 9/9 600 м
[Cb cap]
+6.3 +5.9 97 +5 +5 1000.9 987.5
00 18.06 СЗ 2 20 км 10/8 600 м
[Cb cap Ci fib]
+5.4 +4.0 91 +3 +3 1001.5 988.0
03 18.06 СЗ 2 20 км 8/0
[Ac trans Cc]
+8.8 +3.5 69 +7 +11 1001.8 988.5 +4.6 4

 

Местоположение метеостанции Вонъеган (Ханты-Мансийский АО, Россия): широта 61.95 долгота 64.90 высота над уровнем моря 111 м.

В архиве по умолчанию представлена погода в Вонъегане за последнюю неделю. Архивные данные за месяц целиком и за предыдущие месяцы, начиная с января 2011 года, Вы можете получить, выбрав интересующий диапазон дат из раскрывающегося списка и нажав кнопку "Ввод!".


*Определитесь, кто Вы:
робот инопланетянин человек

Внимание! Время в таблицах - всемирное. Для получения местного времени необходимо прибавить поправку, которая равна 5 ч.

Смотрите также архив погоды в соседних городах и на ближайших метеорологических станциях:

Погода в Октябрьском (Ханты-Мансийский АО, Россия) (82 км)
Погода в Талинке (Ханты-Мансийский АО, Россия) (94 км)
Погода в Агирише (Ханты-Мансийский АО, Россия) (98 км)
Погода в Югорске (Ханты-Мансийский АО, Россия) (108 км)
Погода в Игриме (Ханты-Мансийский АО, Россия) (141 км)
Погода в Атымье (Свердловская область, Россия) (175 км)
Погода в Шаиме (Ханты-Мансийский АО, Россия) (185 км)
Погода в Няксимволе (Ханты-Мансийский АО, Россия) (216 км)
Погода в Березово (Ханты-Мансийский АО, Россия) (219 км)
Погода в Казым-Мысе (Ханты-Мансийский АО, Россия) (230 км)

Пояснения к столбцам:

Ветер - указаны скорость ветра в м/с - средняя за 10 мин, порывы в срок и между сроками (в фигурных скобках) и направление, откуда дует ветер: С - северный, СВ - северо-восточный, В - восточный, ЮВ - юго-восточный, Ю - южный, ЮЗ - юго-западный, З - западный, СЗ - северо-западный.
Видимость - горизонтальная дальность видимости в метрах или километрах. При видимости от 1 до 10 км при отсутствии осадков обычно наблюдается дымка, при ухудшении видимости до 1 км и менее - туман. В сухую погоду видимость может ухудшаться дымом, пылью или мглою.
Явления - указаны атмосферные явления, наблюдавшиеся в срок или в последний час перед сроком; фигурными скобками обозначены явления, наблюдавшиеся между сроками (за 1-3 часа до срока); квадратными скобками обозначены град или гололедные отложения с указанием их диаметра в мм.
Облачность - указаны через наклонную черту общая и нижняя облачность в баллах и высота нижней границы облаков в метрах; квадратными скобками обозначены формы облаков: Ci - перистые, Cs - перисто-слоистые, Cc - перисто-кучевые, Ac - высококучевые, As - высокослоистые, Sc - слоисто-кучевые, Ns - слоисто-дождевые, Cu - кучевые, Cb - кучево-дождевые. Подробнее классификацию облаков см. в Атласе облаков (PDF).
T - Температура воздуха - температура, измеренная на высоте 2 м над землей.
Td - Температура точки росы - температура, при понижении до которой содержащийся в воздухе водяной пар достигнет насыщения.
f - Относительная влажность воздуха - влажноcть воздуха, измеренная на высоте 2 м над землей.
Te - Эффективная температура - температура, которую ощущает одетый по сезону человек в тени. Характеристика душности погоды. При расчете учитывается влияние влажности воздуха и скорости ветра на теплоощущения человека.
Tes - Эффективная температура на солнце - температура, которую ощущает человек, с поправкой на солнечный нагрев. Характеристика знойности погоды. Зависит от высоты солнца над горизонтом, облачности и скорости ветра. Ночью, в пасмурную погоду, а также при ветре 12 м/с и более поправка равна нулю.
P - Атмосферное давление - приведенное к уровню моря атмосферное давление.
Po - Атмосферное давление - измеренное на уровне метеостанции атмосферное давление.
Tmin - Минимальная температура - минимум температуры воздуха на высоте 2 м над землей.
Tmax - Максимальная температура - максимум температуры воздуха на высоте 2 м над землей.
R - Количество осадков - Количество выпавших осадков за период времени, мм. При наведении курсора мыши на число - период времени, за который выпало указанное количество осадков.
R24 - Количество осадков - Количество выпавших осадков за 24 часа, мм.
S - Снежный покров - Высота снежного покрова, см. При наведении курсора мыши на число - состояние снежного покрова и степень покрытия местности в баллах.